Find Starlink 30830

NORAD ID: 58194 Int'l Des: 2023-167 Owner: SPXS Country: US Constellation: starlink operational
LEOCIRCULAR

当前视图

正在加载3D地球...

About Starlink 30830

Starlink 30830 (NORAD 58194) is a starlink constellation satellite (v2 mini) launched Oct 30, 2023 by SPXS of US. It operates in LEO, CIRCULAR orbit with a mass of 730.00 kg.

关于 Starlink 30830

正在加载描述...

即将过境

Passes for default location (London). Set your location on the main map for personalized predictions.

高度历史

Loading altitude history...

两行轨道根数

1 58194U 23167V 26170.39576973 .00000277 00000-0 19599-4 0 9994
2 58194 43.0030 288.6591 0001398 259.8249 100.2445 15.27577838146547
Epoch: Jun 19, 2026 • Age: 13 hours

当前状态

高度 484.4 km
速度 7.63 km/s
星下点 30.73°N, 178.68°E
发射日期 Oct 30, 2023
运行时间 2.6 years
类型 internet

技术详情

分类 Payload
质量 730.00 kg
干质量 700.00 kg
总质量 730.00 kg
长度 0.30 m
直径 4.10 m
跨度 29.00 m
形状 Box + pan
制造商 SPXS
平台类型 Starlink V2M
阶段状态 In Orbit
所有者/国家 SPXS/US

Most Searched